Lexington Weather

Lexington, Massachusetts, USA

32°F
11/15/2019 2:39am 
  • Lexington Conditions: Mostly cloudy
  • Temperature: 32.2°F / 0.1°CWarmer 1.6°F than last hour.
  • Dew Point: 29.7°FIncreased 2.0°Fsince last hour.
  • Relative Humidity: 90%Increased 1.0% since last hour.
  • Wind: Calm, 10-min avg: Calm, gust: 3 mph
  • Barometer: 30.18 inFalling 0.02  inHg/hr Falling Slowly
  • Visibility: 10 miles
  • Snow Today: 0.0 in
  •   

Regional Weather Roundup
for Boston / Norton, MA

        
000
ASUS41 KBOX 130200
RWRBOX

REGIONAL WEATHER ROUNDUP
NATIONAL WEATHER SERVICE BOSTON/NORTON MA
900 PM EST TUE NOV 12 2019

NOTE:  "FAIR" INDICATES FEW OR NO CLOUDS BELOW 12,000 FEET WITH NO 
SIGNIFICANT WEATHER AND/OR OBSTRUCTIONS TO VISIBILITY.

MAZALL-130300-
EASTERN MASSACHUSETTS
  
CITY           SKY/WX    TMP DP  RH WIND       PRES   REMARKS
BOSTON         CLOUDY    31  12  45 W18G31    29.96R WCI  19          
BEVERLY        FAIR      28   9  44 NW17G29   29.95R WCI  16          
LAWRENCE       FAIR      25   8  48 NW14G25   29.98R WCI  13          
BEDFORD        CLOUDY    28  12  51 W20G29    29.96R WCI  15          
BLUE HILL      NOT AVBL                                               
NORWOOD        FAIR      31   8  38 W15G26    29.97R WCI  20          
MARSHFIELD     NOT AVBL                                               
PLYMOUTH       FAIR      29  17  61 NW8       29.94S WCI  21          
TAUNTON        FAIR      31  10  41 NW10G21   29.96R WCI  22          
NEW BEDFORD    FAIR      29  15  56 NW9G20    29.96R WCI  20          
$$

MAZALL-130300-
CAPE COD AND THE ISLANDS
  
CITY           SKY/WX    TMP DP  RH WIND       PRES   REMARKS
FALMOUTH       PTCLDY    28  18  64 NW9G18    29.94R WCI  20          
HYANNIS        NOT AVBL                                               
CHATHAM        CLOUDY    31  21  66 NW10G22   29.92R WCI  22          
PROVINCETOWN   FAIR      32  18  56 NW29G37   29.93R WCI  18          
NANTUCKET      CLOUDY    32  22  66 NW22G32   29.93R WCI  19          
MARTHAS VNYRD  MOCLDY    32  19  58 NW14G26   29.95R WCI  22          
$$
 
MAZALL-130300-
CENTRAL AND WESTERN MASSACHUSETTS
  
CITY           SKY/WX    TMP DP  RH WIND       PRES   REMARKS
WORCESTER      FAIR      21  -1  38 NW26G40   29.94R WCI   4          
FITCHBURG      FAIR      24   6  46 NW15G26   29.98R WCI  11          
ORANGE         FAIR      23   3  42 NW15G23   30.01R WCI  10          
SPRINGFIELD    PTCLDY    23   2  40 NW15      30.02R WCI  10          
WESTFIELD      FAIR      23   5  46 NW18G26   30.05R WCI   9          
NORTH ADAMS    FLURRIES  20   6  55 W15G30    30.03R WCI   6          
PITTSFIELD     FAIR      18   7  62 W13       29.98R WCI   5          
$$
 
RIZALL-130300-
RHODE ISLAND
  
CITY           SKY/WX    TMP DP  RH WIND       PRES   REMARKS
PROVIDENCE     CLOUDY    29   6  38 NW15G32   30.00R WCI  18          
NEWPORT        FAIR      30   7  37 NW25G36   29.97R WCI  16          
BLOCK ISLAND   FAIR      28  11  48 NW22G30   30.02R WCI  14          
SMITHFIELD     FAIR      25  10  53 NW14G20   29.97R WCI  13          
WESTERLY       FAIR      30   9  41 NW9G21    30.03R WCI  22          
$$
 
CTZALL-130300-
CONNECTICUT
  
CITY           SKY/WX    TMP DP  RH WIND       PRES   REMARKS
BRADLEY INTL   FAIR      26   5  40 NW14G29   30.06R WCI  14          
HARTFORD       FAIR      26   5  40 NW16G24   30.08R WCI  14          
BRIDGEPORT     FAIR      28   7  41 NW12      30.09R WCI  18          
DANBURY        FAIR      24   3  40 NW13G18   30.08R WCI  12          
GROTON         NOT AVBL                                               
NEW HAVEN      FAIR      30   8  39 N10       30.09R WCI  21          
CHESTER        FAIR      25   3  39 NW20G33   30.05R WCI  11          
MERIDEN        FAIR      25   5  42 N9        30.08R WCI  15          
WILLIMANTIC    FAIR      25   6  44 NW15G24   30.05R WCI  13          
OXFORD         FAIR      22   9  57 NW8G18    30.05R WCI  12          
$$

MEZ002-015-021-024-NHZ003-005-008-011-012-014-VTZ005-008-130300-
NORTHERN NEW ENGLAND
  
CITY           SKY/WX    TMP DP  RH WIND       PRES   REMARKS
PORTLAND ME    FAIR      23  14  68 W15       29.90R WCI  10          
BANGOR ME      MOCLDY    22  15  75 NW15G23   29.78F WCI   9          
CONCORD NH     LGT SNOW  20  15  81 NW21G29   29.96R VSB 3/4 WCI   4  
MANCHESTER NH  FAIR      24   6  46 W18G32    29.96R WCI  10          
NASHUA NH      FAIR      24   9  52 NW17G29   29.98R WCI  11          
PORTSMOUTH NH  NOT AVBL                                               
JAFFREY NH     FAIR      20   7  57 NW8G17    29.94R WCI  10          
KEENE NH       FAIR      21  10  62 NW10G16   30.00R WCI  10          
BURLINGTON VT  CLOUDY    16   2  54 W9        30.06R WCI   4          
MT. WASHINGTON SNOWSHWR  -9  -9 100 W85G96      N/A  VSB 1/16WCI -50  
$$

NYZ052-076-130300-
EASTERN NEW YORK
  
CITY           SKY/WX    TMP DP  RH WIND       PRES   REMARKS
ALBANY         FAIR      22   8  55 NW15      30.10R WCI   9          
NEW YORK CITY  FAIR      30   8  39 NW18G32   30.13R WCI  18          
$$
 
ANZALL-130300-
MARINE OBSERVATIONS
  
STATION/POSITION TIME  TEMP    WIND        PRES    VSBY  WAVE
                       AIR SEA DIR/SP/G                  HT/PER
                 (UTC) (F)     (DEG/KT/KT) (MB)    (MI)  (FT/S)
BOSTON BUOY      0050   33 53  310/ 25/ 31 1011.9          5/ 5
BUZZARDS BAY     0100          320/ 27/ 32 1014.8R
NANTUCKET SOUND  NOT AVBL
MASS BAY-STELLWA NOT AVBL
ISLE OF SHOALS   0100   28     300/ 22/ 25 1012.0R
S OF BLOCK IS    0130      58                N/A           8/ 6
$$

......................KEY.........................
  SKY/WX - SKY CONDITION/PRESENT WEATHER
  TMP    - TEMPERATURE IN FAHRENHEIT
  DWPT   - DEWPOINT IN FAHRENHEIT
  RH     - RELATIVE HUMIDITY IN PERCENT
  WIND   - DIRECTION AND SPEED IN MPH
  PRES   - MEAN SEA LEVEL PRESSURE IN INCHES OF HG
  WCI    - WIND CHILL INDEX
  VSB    - VISIBILITY IN MILES
  HX     - HEAT INDEX
  TC     - TEMPERATURE IN CELSIUS
  VRB    - VARIABLE WIND DIRECTION
  N/A    - NOT AVAILABLE
  
      

Other recent Regional Weather Roundups

Fri Nov 15, 2:10am

Fri Nov 15, 2:00am

Fri Nov 15, 1:10am

Fri Nov 15, 1:00am

Fri Nov 15, 12:10am

Fri Nov 15, 12:00am

Thu Nov 14, 11:10pm

Thu Nov 14, 11:00pm

Thu Nov 14, 10:10pm

Thu Nov 14, 10:00pm

Thu Nov 14, 9:10pm

Thu Nov 14, 9:00pm

Thu Nov 14, 8:10pm

Thu Nov 14, 8:00pm

Thu Nov 14, 7:10pm

Thu Nov 14, 7:00pm

Thu Nov 14, 6:10pm

Thu Nov 14, 6:01pm

Thu Nov 14, 5:10pm

Thu Nov 14, 5:00pm

Thu Nov 14, 4:10pm

Thu Nov 14, 4:00pm

Thu Nov 14, 3:10pm

Thu Nov 14, 3:00pm

Thu Nov 14, 2:10pm

Thu Nov 14, 2:00pm

Thu Nov 14, 1:10pm

Thu Nov 14, 1:00pm

Thu Nov 14, 12:10pm

Thu Nov 14, 12:01pm

Thu Nov 14, 11:10am

Thu Nov 14, 11:00am

Thu Nov 14, 10:10am

Thu Nov 14, 10:01am

Thu Nov 14, 9:10am

Thu Nov 14, 9:00am

Thu Nov 14, 8:10am

Thu Nov 14, 8:00am

Thu Nov 14, 7:10am

Thu Nov 14, 7:00am

Thu Nov 14, 6:10am

Thu Nov 14, 6:00am

Thu Nov 14, 5:10am

Thu Nov 14, 5:00am

Thu Nov 14, 4:10am

Thu Nov 14, 4:00am

Thu Nov 14, 3:10am

Thu Nov 14, 3:00am

Thu Nov 14, 2:10am

Thu Nov 14, 2:00am

Thu Nov 14, 1:10am

Thu Nov 14, 1:00am

Thu Nov 14, 12:10am

Thu Nov 14, 12:00am

Wed Nov 13, 11:10pm

Wed Nov 13, 11:00pm

Wed Nov 13, 10:10pm

Wed Nov 13, 10:00pm

Wed Nov 13, 9:10pm

Wed Nov 13, 9:00pm

Wed Nov 13, 8:10pm

Wed Nov 13, 8:00pm

Wed Nov 13, 7:10pm

Wed Nov 13, 7:00pm

Wed Nov 13, 6:10pm

Wed Nov 13, 6:01pm

Wed Nov 13, 5:10pm

Wed Nov 13, 5:00pm

Wed Nov 13, 4:10pm

Wed Nov 13, 4:00pm

Wed Nov 13, 3:10pm

Wed Nov 13, 3:01pm

Wed Nov 13, 2:10pm

Wed Nov 13, 2:01pm

Wed Nov 13, 1:10pm

Wed Nov 13, 1:00pm

Wed Nov 13, 12:10pm

Wed Nov 13, 12:01pm

Wed Nov 13, 11:10am

Wed Nov 13, 11:00am

Wed Nov 13, 10:10am

Wed Nov 13, 10:00am

Wed Nov 13, 9:10am

Wed Nov 13, 9:00am

Wed Nov 13, 8:10am

Wed Nov 13, 8:00am

Wed Nov 13, 7:10am

Wed Nov 13, 7:00am

Wed Nov 13, 6:10am

Wed Nov 13, 6:00am

Wed Nov 13, 5:10am

Wed Nov 13, 5:00am

Wed Nov 13, 4:10am

Wed Nov 13, 4:00am

Wed Nov 13, 3:10am

Wed Nov 13, 3:00am

Wed Nov 13, 2:10am

Wed Nov 13, 2:00am

Wed Nov 13, 1:10am

Wed Nov 13, 1:00am

Wed Nov 13, 12:10am

Wed Nov 13, 12:00am

Tue Nov 12, 11:10pm

Tue Nov 12, 11:00pm

Tue Nov 12, 10:10pm

Tue Nov 12, 10:00pm

Tue Nov 12, 9:10pm

Tue Nov 12, 8:10pm

Tue Nov 12, 8:00pm

Tue Nov 12, 7:10pm

Tue Nov 12, 7:01pm

Tue Nov 12, 6:10pm

Tue Nov 12, 6:01pm

Tue Nov 12, 5:10pm

Tue Nov 12, 5:01pm

Tue Nov 12, 4:10pm

Tue Nov 12, 4:01pm

Tue Nov 12, 3:10pm

Tue Nov 12, 3:00pm

Tue Nov 12, 2:10pm

Tue Nov 12, 2:00pm

Tue Nov 12, 1:10pm

Tue Nov 12, 1:00pm

Tue Nov 12, 12:10pm

Tue Nov 12, 12:00pm

Tue Nov 12, 11:10am

Tue Nov 12, 11:00am

Tue Nov 12, 10:10am

Tue Nov 12, 10:01am

Tue Nov 12, 9:10am

Tue Nov 12, 9:00am

Tue Nov 12, 8:10am

Tue Nov 12, 8:00am

Tue Nov 12, 7:10am

Tue Nov 12, 7:00am

Tue Nov 12, 6:10am

Tue Nov 12, 6:00am

Tue Nov 12, 5:10am

Tue Nov 12, 5:01am

Tue Nov 12, 4:10am

Tue Nov 12, 4:00am

Tue Nov 12, 3:10am

Tue Nov 12, 3:01am

Meta data:

ID: 2843c156-ef50-4fc8-8321-970b880e5ae8
Link: https://api.weather.gov/products/2843c156-ef50-4fc8-8321-970b880e5ae8